Volk, WI

4:12 AM CDT on May 24, 2017 (GMT -0500)
Volk

Weather History for KVOK - November, 2012

Change the Weather History Date:

Friday, November 23, 2012

  Actual Average Record
Temperature  
Mean Temperature 28 °F -  
Max Temperature 33 °F 36 °F 55 °F (1999)
Min Temperature 23 °F 24 °F 2 °F (2013)
Degree Days  
Heating Degree Days 37    
Moisture  
Dew Point 15 °F    
Average Humidity 64    
Maximum Humidity 69    
Minimum Humidity 59    
Precipitation  
Precipitation 0.00 in - - ()
Sea Level Pressure  
Sea Level Pressure 30.10 in    
Wind  
Wind Speed 20 mph (WNW)    
Max Wind Speed 25 mph    
Max Gust Speed 39 mph    
Visibility 10 miles    
Events Snow    
Averages and records for this station are not official NWS values.
T = Trace of Precipitation, MM = Missing Value Source: NWS Daily Summary

Daily Weather History Graph

Daily Weather History Graph

Search for Another Location

Airport or City:

Trip Planner

Search our weather history database for the weather conditions in past years. The results will help you decide how hot, cold, wet, or windy it might be!

Date:

Astronomy

Nov. 23, 2012 Rise Set
Actual Time 7:06 AM CST 4:28 PM CST
Civil Twilight 6:34 AM CST 5:00 PM CST
Nautical Twilight 5:59 AM CST 5:35 PM CST
Astronomical Twilight 5:25 AM CST 6:09 PM CST
Moon 1:50 PM CST (11/23) 2:17 AM CST (11/23)
Length of Visible Light 10h 25m
Length of Day
9h 21m
Waxing Gibbous, 80% of the Moon is Illuminated
Nov 23
Waxing Gibbous
Nov 28
Full
Dec 6
Last Quarter
Dec 13
New
Dec 19
First Quarter

Hourly Weather History & Observations

Time (CST) Temp. Windchill Dew Point Humidity Pressure Visibility Wind Dir Wind Speed Gust Speed Precip Events Conditions
12:17 AM 33.8 °F 22.2 °F 23.0 °F 65% 29.84 in 10.0 mi West 20.7 mph 35.7 mph N/A   Overcast
12:19 AM 33.8 °F 22.2 °F 23.0 °F 65% 29.83 in 10.0 mi West 20.7 mph 35.7 mph N/A   Overcast
12:55 AM 33.3 °F 20.3 °F 22.6 °F 65% 29.84 in 10.0 mi WNW 25.3 mph 34.5 mph N/A   Overcast
1:55 AM 31.5 °F 18.8 °F 20.8 °F 65% 29.86 in 10.0 mi WNW 21.9 mph 35.7 mph N/A   Overcast
2:51 AM 30.2 °F 17.8 °F 19.4 °F 64% 29.88 in 10.0 mi WNW 19.6 mph 31.1 mph N/A   Overcast
2:55 AM 29.3 °F 15.6 °F 19.8 °F 68% 29.88 in 10.0 mi West 23.0 mph 32.2 mph 0.00 in   Overcast
3:36 AM 28.4 °F 15.4 °F 17.6 °F 64% 29.89 in 10.0 mi WNW 19.6 mph 33.4 mph N/A   Overcast
3:39 AM 28.4 °F 15.4 °F 17.6 °F 64% 29.89 in 10.0 mi WNW 19.6 mph 33.4 mph N/A   Overcast
3:42 AM 28.4 °F 15.8 °F 17.6 °F 64% 29.90 in 10.0 mi West 18.4 mph 33.4 mph N/A   Overcast
3:55 AM 27.5 °F 14.6 °F 17.8 °F 67% 29.90 in 10.0 mi West 18.4 mph 27.6 mph 0.00 in   Overcast
3:59 AM 26.6 °F 13.1 °F 17.6 °F 69% 29.90 in 10.0 mi West 19.6 mph 27.6 mph N/A   Overcast
4:12 AM 26.6 °F 12.4 °F 15.8 °F 64% 29.91 in 10.0 mi WNW 21.9 mph 31.1 mph N/A   Overcast
4:23 AM 26.6 °F 11.7 °F 15.8 °F 64% 29.91 in 10.0 mi West 24.2 mph 28.8 mph N/A   Overcast
4:53 AM 26.6 °F 12.0 °F 15.8 °F 64% 29.92 in 10.0 mi West 23.0 mph 31.1 mph N/A   Mostly Cloudy
4:55 AM 25.9 °F 12.9 °F 15.6 °F 65% 29.92 in 10.0 mi WNW 17.3 mph 31.1 mph 0.00 in   Overcast
5:01 AM 26.6 °F 14.3 °F 15.8 °F 64% 29.93 in 10.0 mi WNW 16.1 mph 24.2 mph N/A   Overcast
5:10 AM 26.6 °F 12.0 °F 15.8 °F 64% 29.93 in 10.0 mi WNW 23.0 mph 28.8 mph N/A   Mostly Cloudy
5:15 AM 26.6 °F 12.0 °F 15.8 °F 64% 29.93 in 10.0 mi West 23.0 mph 35.7 mph N/A   Overcast
5:31 AM 26.6 °F 12.4 °F 15.8 °F 64% 29.94 in 10.0 mi WNW 21.9 mph 32.2 mph N/A   Mostly Cloudy
5:47 AM 24.8 °F 9.6 °F 15.8 °F 69% 29.94 in 10.0 mi WNW 23.0 mph 33.4 mph N/A Snow Light Snow
5:53 AM 24.8 °F 10.7 °F 15.8 °F 69% 29.95 in 10.0 mi West 19.6 mph 33.4 mph N/A   Mostly Cloudy
5:55 AM 25.2 °F 11.2 °F 16.0 °F 68% 29.95 in 10.0 mi WNW 19.6 mph 33.4 mph 0.00 in   Mostly Cloudy
6:05 AM 24.8 °F 10.7 °F 15.8 °F 69% 29.96 in 10.0 mi WNW 19.6 mph 35.7 mph N/A Snow Light Snow
6:29 AM 24.8 °F 10.7 °F 15.8 °F 69% 29.97 in 10.0 mi WNW 19.6 mph 29.9 mph N/A   Mostly Cloudy
6:31 AM 24.8 °F 9.3 °F 15.8 °F 69% 29.96 in 10.0 mi WNW 24.2 mph 29.9 mph N/A Snow Light Snow
6:37 AM 24.8 °F 10.0 °F 15.8 °F 69% 29.97 in 10.0 mi WNW 21.9 mph 32.2 mph N/A   Overcast
6:39 AM 24.8 °F 9.6 °F 14.0 °F 64% 29.97 in 10.0 mi WNW 23.0 mph 32.2 mph N/A Snow Light Snow
6:41 AM 24.8 °F 11.1 °F 14.0 °F 64% 29.98 in 10.0 mi WNW 18.4 mph 32.2 mph N/A   Overcast
6:46 AM 24.8 °F 10.0 °F 14.0 °F 64% 29.98 in 10.0 mi West 21.9 mph 31.1 mph N/A Snow Light Snow
6:55 AM 24.8 °F 10.7 °F 14.4 °F 65% 29.98 in 10.0 mi WNW 19.6 mph 31.1 mph 0.00 in Snow Light Snow
7:17 AM 24.8 °F 11.1 °F 14.0 °F 64% 30.00 in 10.0 mi WNW 18.4 mph 28.8 mph N/A   Mostly Cloudy
7:23 AM 24.8 °F 9.0 °F 14.0 °F 64% 30.00 in 10.0 mi WNW 25.3 mph 35.7 mph N/A Snow Light Snow
7:24 AM 24.8 °F 9.0 °F 14.0 °F 64% 30.00 in 10.0 mi WNW 25.3 mph 35.7 mph N/A   Mostly Cloudy
7:27 AM 24.8 °F 10.3 °F 14.0 °F 64% 30.00 in 10.0 mi WNW 20.7 mph 35.7 mph N/A Snow Light Snow
7:43 AM 24.8 °F 11.1 °F 14.0 °F 64% 30.01 in 10.0 mi WNW 18.4 mph 39.1 mph N/A Snow Light Snow
7:45 AM 24.8 °F 10.3 °F 14.0 °F 64% 30.01 in 10.0 mi WNW 20.7 mph 39.1 mph N/A   Scattered Clouds
7:48 AM 24.8 °F 10.7 °F 14.0 °F 64% 30.01 in 10.0 mi WNW 19.6 mph 39.1 mph N/A   Mostly Cloudy
7:55 AM 24.8 °F 9.3 °F 14.2 °F 64% 30.01 in 10.0 mi WNW 24.2 mph 31.1 mph 0.00 in   Mostly Cloudy
8:27 AM 24.8 °F 9.6 °F 14.0 °F 64% 30.04 in 10.0 mi WNW 23.0 mph 34.5 mph N/A   Mostly Cloudy
8:39 AM 24.8 °F 9.6 °F 14.0 °F 64% 30.04 in 10.0 mi WNW 23.0 mph 31.1 mph N/A   Mostly Cloudy
8:41 AM 24.8 °F 10.7 °F 14.0 °F 64% 30.04 in 10.0 mi WNW 19.6 mph 29.9 mph N/A   Mostly Cloudy
8:55 AM 25.3 °F 10.3 °F 14.4 °F 63% 30.05 in 10.0 mi WNW 23.0 mph 28.8 mph 0.00 in   Scattered Clouds
9:22 AM 24.8 °F 10.3 °F 14.0 °F 64% 30.06 in 10.0 mi WNW 20.7 mph 34.5 mph N/A   Mostly Cloudy
9:24 AM 24.8 °F 10.3 °F 14.0 °F 64% 30.06 in 10.0 mi WNW 20.7 mph 34.5 mph N/A   Scattered Clouds
9:31 AM 24.8 °F 10.7 °F 14.0 °F 64% 30.07 in 10.0 mi WNW 19.6 mph 29.9 mph N/A Snow Light Snow
9:41 AM 24.8 °F 10.3 °F 14.0 °F 64% 30.08 in 10.0 mi NW 20.7 mph 36.8 mph N/A   Scattered Clouds
9:55 AM 25.7 °F 10.8 °F 14.2 °F 62% 30.09 in 10.0 mi NW 23.0 mph 35.7 mph 0.00 in   Scattered Clouds
10:09 AM 24.8 °F 10.0 °F 14.0 °F 64% 30.10 in 10.0 mi WNW 21.9 mph 32.2 mph N/A   Mostly Cloudy
10:37 AM 26.6 °F 13.1 °F 14.0 °F 59% 30.12 in 10.0 mi WNW 19.6 mph 35.7 mph N/A   Mostly Cloudy
10:55 AM 25.7 °F 10.5 °F 13.1 °F 59% 30.12 in 10.0 mi WNW 24.2 mph 32.2 mph 0.00 in   Mostly Cloudy
10:59 AM 26.6 °F 12.4 °F 14.0 °F 59% 30.12 in 10.0 mi WNW 21.9 mph 34.5 mph N/A   Mostly Cloudy
11:03 AM 26.6 °F 13.4 °F 14.0 °F 59% 30.13 in 10.0 mi NW 18.4 mph 34.5 mph N/A   Mostly Cloudy
11:06 AM 26.6 °F 12.4 °F 14.0 °F 59% 30.13 in 10.0 mi NW 21.9 mph 34.5 mph N/A   Mostly Cloudy
11:07 AM 26.6 °F 13.4 °F 14.0 °F 59% 30.13 in 10.0 mi NW 18.4 mph 32.2 mph N/A   Mostly Cloudy
11:10 AM 26.6 °F 12.0 °F 14.0 °F 59% 30.13 in 10.0 mi WNW 23.0 mph 32.2 mph N/A   Mostly Cloudy
11:16 AM 26.6 °F 13.4 °F 14.0 °F 59% 30.13 in 10.0 mi WNW 18.4 mph 31.1 mph N/A   Mostly Cloudy
11:17 AM 26.6 °F 13.1 °F 14.0 °F 59% 30.13 in 10.0 mi WNW 19.6 mph 31.1 mph N/A   Mostly Cloudy
11:21 AM 26.6 °F 14.7 °F 14.0 °F 59% 30.13 in 10.0 mi NW 15.0 mph 31.1 mph N/A   Mostly Cloudy
11:24 AM 26.6 °F 13.4 °F 14.0 °F 59% 30.13 in 10.0 mi NW 18.4 mph 25.3 mph N/A   Mostly Cloudy
11:53 AM 26.6 °F 12.4 °F 14.0 °F 59% 30.14 in 10.0 mi NW 21.9 mph 32.2 mph N/A   Overcast
11:55 AM 26.1 °F 12.3 °F 14.4 °F 61% 30.14 in 10.0 mi WNW 19.6 mph 32.2 mph 0.00 in   Overcast
12:02 PM 26.6 °F 13.4 °F 14.0 °F 59% 30.14 in 10.0 mi WNW 18.4 mph 29.9 mph N/A   Overcast
12:04 PM 26.6 °F 12.4 °F 14.0 °F 59% 30.15 in 10.0 mi WNW 21.9 mph 28.8 mph N/A   Overcast
12:13 PM 26.6 °F 12.4 °F 14.0 °F 59% 30.15 in 10.0 mi WNW 21.9 mph 27.6 mph N/A   Overcast
12:55 PM 26.4 °F 13.6 °F 14.7 °F 61% 30.16 in 10.0 mi WNW 17.3 mph 31.1 mph 0.00 in   Overcast
1:09 PM 26.6 °F 12.0 °F 14.0 °F 59% 30.17 in 10.0 mi WNW 23.0 mph 28.8 mph N/A   Overcast
1:19 PM 26.6 °F 13.8 °F 14.0 °F 59% 30.17 in 10.0 mi WNW 17.3 mph 28.8 mph N/A   Overcast
1:21 PM 26.6 °F 13.4 °F 14.0 °F 59% 30.17 in 10.0 mi WNW 18.4 mph 26.5 mph N/A   Overcast
1:31 PM 26.6 °F 13.8 °F 14.0 °F 59% 30.17 in 10.0 mi NW 17.3 mph 27.6 mph N/A   Overcast
1:51 PM 26.6 °F 12.4 °F 14.0 °F 59% 30.18 in 10.0 mi WNW 21.9 mph 29.9 mph N/A   Overcast
1:55 PM 26.4 °F 12.1 °F 14.7 °F 61% 30.18 in 10.0 mi WNW 21.9 mph 28.8 mph 0.00 in   Overcast
1:59 PM 26.6 °F 12.0 °F 14.0 °F 59% 30.19 in 10.0 mi WNW 23.0 mph 28.8 mph N/A   Overcast
2:29 PM 26.6 °F 11.4 °F 14.0 °F 59% 30.20 in 10.0 mi NW 25.3 mph 28.8 mph N/A   Overcast
2:37 PM 26.6 °F 12.7 °F 14.0 °F 59% 30.19 in 10.0 mi WNW 20.7 mph 29.9 mph N/A   Overcast
2:55 PM 26.4 °F 14.0 °F 14.7 °F 61% 30.21 in 10.0 mi NW 16.1 mph 26.5 mph 0.00 in   Overcast
3:55 PM 26.1 °F 15.0 °F 14.7 °F 62% 30.24 in 10.0 mi NW 12.7 mph 28.8 mph N/A   Overcast
4:55 PM 25.5 °F 12.9 °F 14.0 °F 62% 30.25 in 10.0 mi NW 16.1 mph 24.2 mph N/A   Overcast
5:55 PM 25.3 °F 11.0 °F 14.4 °F 63% 30.27 in 10.0 mi WNW 20.7 mph 28.8 mph N/A   Overcast
6:55 PM 25.3 °F 13.1 °F 14.9 °F 65% 30.28 in 10.0 mi NW 15.0 mph 26.5 mph N/A   Overcast
7:55 PM 25.0 °F 12.6 °F 14.7 °F 65% 30.29 in 10.0 mi NW 15.0 mph 23.0 mph N/A   Overcast
8:55 PM 24.4 °F 14.2 °F 14.4 °F 66% 30.28 in 10.0 mi NW 10.4 mph - N/A   Overcast
9:07 PM 24.8 °F 13.4 °F 14.0 °F 64% 30.28 in 10.0 mi WNW 12.7 mph - N/A   Overcast
9:16 PM 24.8 °F 14.0 °F 14.0 °F 64% 30.28 in 10.0 mi NW 11.5 mph - N/A   Overcast
9:31 PM 24.8 °F 13.4 °F 14.0 °F 64% 30.28 in 10.0 mi NW 12.7 mph 18.4 mph N/A   Overcast
9:43 PM 24.8 °F 14.0 °F 14.0 °F 64% 30.28 in 10.0 mi NW 11.5 mph - N/A   Overcast
9:55 PM 24.3 °F 12.2 °F 14.2 °F 65% 30.28 in 10.0 mi NW 13.8 mph - 0.00 in   Overcast
9:56 PM 24.8 °F 12.9 °F 14.0 °F 64% 30.28 in 10.0 mi NW 13.8 mph - N/A   Overcast
10:14 PM 24.8 °F 14.0 °F 14.0 °F 64% 30.29 in 10.0 mi NW 11.5 mph - N/A   Overcast
10:17 PM 24.8 °F 13.4 °F 14.0 °F 64% 30.28 in 10.0 mi NW 12.7 mph - N/A   Overcast
10:25 PM 24.8 °F 14.0 °F 14.0 °F 64% 30.28 in 10.0 mi NW 11.5 mph - N/A   Overcast
10:43 PM 24.8 °F 14.0 °F 14.0 °F 64% 30.28 in 10.0 mi NW 11.5 mph - N/A   Overcast
10:44 PM 24.8 °F 14.0 °F 14.0 °F 64% 30.29 in 10.0 mi NNW 11.5 mph 20.7 mph N/A   Overcast
10:55 PM 23.9 °F 11.7 °F 13.8 °F 65% 30.28 in 10.0 mi NNW 13.8 mph 20.7 mph 0.00 in   Overcast
11:11 PM 23.0 °F 10.6 °F 14.0 °F 68% 30.29 in 10.0 mi NNW 13.8 mph - N/A   Overcast
11:15 PM 23.0 °F 10.6 °F 14.0 °F 68% 30.29 in 10.0 mi NNW 13.8 mph - N/A   Overcast
11:19 PM 23.0 °F 11.1 °F 14.0 °F 68% 30.29 in 10.0 mi NNW 12.7 mph - N/A   Overcast
11:21 PM 23.0 °F 10.6 °F 14.0 °F 68% 30.29 in 10.0 mi NNW 13.8 mph - N/A   Overcast
11:25 PM 23.0 °F 11.1 °F 14.0 °F 68% 30.29 in 10.0 mi NNW 12.7 mph - N/A   Overcast
11:29 PM 23.0 °F 12.4 °F 14.0 °F 68% 30.29 in 10.0 mi NNW 10.4 mph - N/A   Overcast
11:37 PM 23.0 °F 11.1 °F 14.0 °F 68% 30.29 in 10.0 mi NW 12.7 mph - N/A   Overcast
11:49 PM 23.0 °F 9.6 °F 14.0 °F 68% 30.29 in 10.0 mi NW 16.1 mph - N/A   Overcast
11:55 PM 23.4 °F 11.6 °F 13.6 °F 66% 30.29 in 10.0 mi NW 12.7 mph - 0.00 in   Overcast
11:59 PM 23.0 °F 11.1 °F 14.0 °F 68% 30.28 in 10.0 mi NW 12.7 mph - N/A   Overcast